Terug naar catalogus

KANOPUS-V 5

ActiefWetenschapSSO
NORAD 43876·PAYLOAD·🇷🇺 Russia

Gelanceerd Dec 27, 2018 vanaf Vostochny Cosmodrome

Loading…

Volgende Passages (komende 24 uur)

TLE

VersSource: Space-Track

Epoch: Sep 14, 2026, 15:09 UTC

1 43876U 18111A   26257.63143778  .00001815  00000-0  81664-4 0  9995
2 43876  97.3473 161.2427 0001798  90.7072 269.4371 15.22346996428391

Volg KANOPUS-V 5 in realtime met AllMySat

Download on the App Store